GW1983 Weather Reports


time (UTC)temp
F
wind
direction
speed
knots
gust
knots
rain 1hr
in
rain 24hr
in
rain mn
in
humidity
%
barometer
mb
20260505014540 54 190 0.9 2.6 0.00 0.00 0.00 72 1007.6
20260505013042 53 212 0.0 2.6 0.00 0.00 0.00 73 1007.5
20260505011545 54 0 0.0 3.5 0.00 0.00 0.00 72 1007.3
20260505010054 54 51 0.0 3.5 0.00 0.00 0.00 70 1007.1
20260505004555 56 178 0.9 2.6 0.00 0.00 0.00 65 1006.9
20260505003034 60 360 0.0 1.7 0.00 0.00 0.00 55 1006.5
20260505001545 64 0 0.0 0.0 0.00 0.00 0.00 41 1006.0
20260505000045 66 0 0.0 0.0 0.00 0.00 0.00 41 1005.8
20260504234541 67 0 0.0 0.9 0.00 0.00 0.00 37 1005.6
20260504233040 69 0 0.0 2.6 0.00 0.00 0.00 34 1005.4
20260504231540 70 306 0.0 4.3 0.00 0.00 0.00 32 1005.1
20260504230037 70 0 0.0 4.3 0.00 0.00 0.00 31 1005.0
20260504224545 71 0 1.7 7.0 0.00 0.00 0.00 31 1004.7
20260504223046 71 258 3.5 10.4 0.00 0.00 0.00 31 1004.7
20260504221556 71 0 0.9 4.3 0.00 0.00 0.00 32 1004.5
20260504220039 71 244 1.7 7.0 0.00 0.00 0.00 31 1004.6
20260504214537 71 263 0.0 3.5 0.00 0.00 0.00 32 1004.7
20260504213045 71 257 2.6 6.1 0.00 0.00 0.00 31 1004.7
20260504211540 72 248 1.7 7.0 0.00 0.00 0.00 30 1004.8
20260504210046 73 253 0.9 13.0 0.00 0.00 0.00 30 1004.6
20260504204537 72 210 2.6 9.6 0.00 0.00 0.00 30 1004.6
20260504203047 72 265 3.5 11.3 0.00 0.00 0.00 29 1004.7
20260504201545 72 327 5.2 16.5 0.00 0.00 0.00 29 1004.7
20260504200041 73 243 2.6 8.7 0.00 0.00 0.00 28 1004.7
20260504194549 73 292 1.7 7.8 0.00 0.00 0.00 31 1004.7
20260504193045 72 255 2.6 10.4 0.00 0.00 0.00 29 1004.7
20260504191601 70 261 3.5 9.6 0.00 0.00 0.00 31 1004.8
20260504190045 70 283 2.6 9.6 0.00 0.00 0.00 31 1004.8
20260504184555 69 223 3.5 12.2 0.00 0.00 0.00 31 1005.0
20260504183043 71 274 5.2 13.9 0.00 0.00 0.00 28 1004.9
20260504181541 71 253 3.5 11.3 0.00 0.00 0.00 29 1004.7
20260504180038 71 238 3.5 11.3 0.00 0.00 0.00 28 1004.7
20260504174535 71 252 3.5 8.7 0.00 0.00 0.00 30 1004.8
20260504173044 70 264 3.5 7.0 0.00 0.00 0.00 29 1004.8
20260504171545 69 246 3.5 8.7 0.00 0.00 0.00 31 1004.8
20260504081540 39 281 0.0 2.6 0.00 0.00 0.00 75 1008.5
20260504080121 37 0 0.0 0.9 0.00 0.00 0.00 86 1008.5
20260504044536 33 0 0.0 0.9 0.00 0.00 0.00 85 1008.5
20260504043037 34 0 0.0 0.9 0.00 0.00 0.00 83 1008.5
20260504041541 34 0 0.0 0.9 0.00 0.00 0.00 82 1008.4
20260504040041 35 0 0.0 0.0 0.00 0.00 0.00 81 1008.3
20260504034535 35 0 0.0 0.0 0.00 0.00 0.00 81 1008.1
20260504033044 35 0 0.0 0.0 0.00 0.00 0.00 79 1008.0
20260504031534 36 0 0.0 0.0 0.00 0.00 0.00 78 1008.0
20260504030106 37 0 0.0 0.9 0.00 0.00 0.00 78 1007.9
20260504024544 37 0 0.0 0.9 0.00 0.01 0.00 76 1007.9
20260504023039 38 0 0.0 0.0 0.00 0.01 0.00 74 1008.0
20260504021547 39 0 0.0 0.0 0.00 0.01 0.00 73 1007.8
20260504020034 40 0 0.0 0.0 0.00 0.01 0.00 71 1007.9